Temp
13 13 13 13 13 13 13 13 13 13 14 14 14 14 14 14 14 14 14 14 14 14 14 13 13 13 12 12 12 12 12 11 11 11 10 10 10 10 10 9 9 9 9 9 9 9 10 10 10 10 9 9 9 9 9 9 9 9 9 9 9 9 9 9 9 9 9 9 9
13 13 13 13 13 13 13 13 13 13 13 14 14 14 14 14 14 14 14 14 14 14 13 13 13 13 12 12 12 12 11 11 11 11 10 10 10 10 9 9 9 9 9 9 9 9 10 10 10 10 9 9 9 9 9 9 9 9 9 9 9 9 9 9 9 9 9 9 9
13 13 13 13 13 13 13 13 13 13 13 14 14 14 14 14 14 14 14 14 14 13 13 13 13 12 12 12 11 11 11 11 11 11 10 10 10 9 9 10 10 10 10 9 9 9 10 10 10 10 9 9 9 9 9 9 9 9 9 9 9 9 9 9 9 9 9 9 9
13 13 13 13 13 13 13 13 13 13 13 13 14 14 14 14 14 14 14 14 13 13 13 13 13 12 12 11 11 11 11 11 11 10 10 10 10 9 10 10 10 10 9 9 9 9 10 10 10 10 9 9 9 9 9 9 9 9 9 9 9 9 9 9 9 9 9 9 9
13 13 13 13 13 13 13 13 13 13 13 13 14 14 14 14 14 14 14 14 14 13 13 13 12 12 12 11 11 11 11 11 11 10 10 10 10 10 10 10 10 10 10 9 9 9 10 10 10 10 9 9 9 9 9 9 9 9 9 9 9 9 9 9 9 9 9 9 9
13 12 12 12 12 12 13 13 13 13 13 13 14 14 14 14 14 14 14 14 13 13 13 12 12 12 11 11 11 11 11 11 10 10 10 10 10 10 10 9 10 10 10 9 9 9 10 10 10 10 10 10 9 9 9 9 9 9 9 9 9 9 9 9 9 9 9 9 8
12 12 12 12 12 12 12 12 13 13 13 13 14 14 14 14 14 14 14 14 13 13 13 12 12 12 11 11 11 11 11 10 10 10 10 10 10 10 9 9 10 10 10 9 9 9 9 10 10 10 10 10 10 9 9 9 9 9 9 9 9 9 9 9 9 9 9 8 8
12 12 12 12 12 12 12 12 13 13 13 13 14 14 14 14 14 14 13 13 13 13 13 12 12 12 11 11 11 11 10 10 10 10 9 10 10 10 9 10 10 10 9 9 9 9 9 10 10 10 10 10 10 9 9 9 9 9 9 9 9 9 9 9 9 8 8 8 8
12 12 12 12 12 12 12 12 13 13 13 13 13 14 14 14 13 13 13 13 13 13 12 12 12 11 11 11 11 11 10 10 10 9 9 9 9 9 10 10 10 10 9 9 9 9 9 10 10 10 10 10 9 9 9 9 9 9 9 9 9 9 9 9 8 8 8 8 7
12 12 12 12 12 12 12 12 13 13 13 13 13 13 13 13 13 13 13 13 13 12 12 12 12 11 11 11 11 10 10 10 10 9 9 9 9 9 10 10 10 10 9 9 9 10 10 10 10 10 10 10 9 9 9 9 9 9 9 9 9 9 9 8 8 8 7 7 7
12 12 12 12 12 12 12 12 13 13 13 13 13 13 13 13 13 13 13 13 12 12 12 12 11 11 11 11 10 10 10 10 10 9 9 9 9 9 10 10 10 10 10 10 10 10 10 10 10 10 10 9 9 9 9 9 9 9 9 9 9 8 8 8 8 7 7 7 7
12 12 12 12 12 12 12 12 13 13 13 13 13 13 13 13 13 13 13 13 12 12 12 11 11 11 11 11 10 10 10 10 10 9 9 9 9 9 9 10 10 10 10 10 10 10 10 10 10 10 9 9 9 9 9 9 9 9 8 8 8 8 8 7 7 7 7 6 6
12 12 12 12 12 12 12 12 13 13 13 13 13 13 13 13 13 13 13 12 12 12 12 11 11 11 11 11 11 11 10 10 10 9 9 9 9 9 10 10 10 10 10 10 10 10 10 10 10 9 9 9 9 9 9 9 8 8 8 8 8 8 7 7 7 7 6 6 6
12 12 12 12 12 12 12 13 13 13 13 13 13 13 13 13 12 12 12 12 12 12 11 11 11 11 11 11 11 10 10 10 9 9 9 9 9 10 10 10 10 10 10 10 10 10 10 10 9 9 9 9 9 9 8 8 8 8 8 8 7 7 7 7 6 6 6 6 6
12 12 12 12 12 12 12 13 13 13 13 13 13 13 13 12 12 12 12 12 12 11 11 11 11 11 11 11 10 10 10 10 9 9 9 10 10 10 10 10 10 10 10 10 10 10 10 9 9 9 9 9 9 8 8 8 8 8 8 7 7 7 7 6 6 6 6 6 6
13 13 13 12 12 12 12 13 13 13 13 13 13 13 12 12 12 12 12 12 12 11 11 11 11 11 11 10 10 10 10 10 9 10 10 10 10 10 10 10 10 10 10 10 10 10 9 9 9 9 9 8 8 8 8 8 8 8 7 7 7 6 6 6 6 6 6 6 6
13 13 12 12 12 12 12 12 12 12 12 12 12 12 12 12 12 12 12 12 12 11 11 11 11 11 11 10 10 10 10 10 10 10 10 10 10 10 10 10 10 10 9 9 9 9 9 9 9 9 8 8 8 8 8 8 8 7 7 7 6 6 6 6 6 6 6 6 6
13 12 12 12 12 12 13 12 12 12 12 12 12 12 12 12 12 12 12 12 11 11 11 11 11 11 11 10 10 10 10 10 10 10 10 10 10 10 10 10 10 9 9 9 9 9 9 9 9 8 8 8 8 8 8 7 7 7 6 6 6 6 6 6 6 6 6 6 6
14 13 12 12 12 12 12 12 12 12 12 12 12 12 12 12 12 12 12 12 11 11 11 11 11 11 10 10 10 10 10 10 10 10 10 10 10 10 10 10 9 9 9 9 9 9 9 8 8 8 8 8 8 8 7 7 7 6 6 6 6 6 6 6 6 6 6 6 6
15 15 14 13 12 12 12 12 12 12 12 12 12 12 12 12 12 12 12 12 11 11 11 11 11 10 10 10 10 10 10 10 10 10 10 10 10 10 10 10 9 9 9 9 9 9 8 8 8 8 8 8 8 7 7 6 6 6 6 7 7 7 6 6 6 6 6 6 6
14 14 14 13 13 13 12 12 12 12 12 12 12 12 12 12 12 12 12 11 11 11 11 11 10 10 10 10 10 10 10 10 10 10 10 10 10 10 10 9 9 9 9 9 8 8 8 8 8 8 8 7 7 7 6 6 6 7 7 7 7 7 6 6 6 6 6 6 5
13 13 13 13 13 13 13 13 12 12 12 12 12 12 12 12 12 12 11 11 11 11 10 10 10 10 10 10 10 10 10 9 10 10 10 10 10 9 9 9 9 9 9 9 8 8 8 8 8 8 8 7 7 7 7 7 7 7 7 7 7 6 6 6 6 6 6 5 5
13 13 13 12 12 13 13 13 12 12 12 12 12 12 12 12 12 12 11 11 11 10 10 10 10 10 10 10 10 10 10 10 10 10 10 10 9 9 9 9 9 9 8 8 8 8 8 8 8 8 7 7 7 7 7 7 7 7 7 7 6 6 6 6 6 6 5 5 5
13 12 12 12 12 12 12 13 12 12 12 12 12 12 12 12 12 11 11 11 11 10 10 10 10 10 10 10 10 10 10 10 10 10 9 9 9 9 9 9 9 8 8 8 8 8 8 8 8 7 7 7 7 7 7 7 7 7 7 6 6 6 6 6 6 5 5 5 4
13 12 12 12 12 12 13 13 12 12 12 12 12 12 12 12 11 11 11 11 10 10 10 10 10 10 10 10 10 10 10 10 10 10 9 9 9 9 9 9 9 8 8 8 8 8 8 7 7 7 7 7 7 7 7 7 7 6 6 6 6 6 6 6 5 5 5 4 4
13 12 12 12 12 12 13 13 12 12 12 12 12 12 12 11 11 11 11 11 10 10 10 10 10 10 10 10 10 10 10 10 10 10 10 9 9 9 9 9 9 8 8 8 8 8 7 7 7 7 7 7 7 7 7 7 6 6 6 6 6 6 6 5 5 5 4 4 3
13 13 13 13 12 13 13 12 12 12 12 12 12 12 12 11 11 11 11 11 10 10 10 10 10 10 10 10 10 10 10 10 10 10 10 9 9 9 9 9 8 8 8 8 7 7 7 7 7 7 7 7 7 7 7 7 6 6 6 6 6 6 5 5 5 4 4 3 2
13 13 13 13 13 13 13 12 12 12 12 12 12 12 11 11 11 11 11 11 11 11 10 10 10 10 10 10 10 10 10 10 10 9 9 9 9 9 9 9 8 8 8 7 7 7 7 7 7 7 7 7 7 7 6 6 6 6 6 6 6 5 5 4 4 3 3 2 2
13 13 13 13 13 13 13 12 12 12 12 12 12 12 11 11 11 11 11 11 11 11 10 10 10 10 10 10 10 10 10 9 9 9 9 9 9 9 9 8 8 8 8 7 7 7 7 7 7 7 7 6 6 6 6 6 6 6 6 6 5 5 4 4 3 3 2 2 2
13 13 13 13 13 13 13 12 12 11 12 12 12 11 11 11 11 11 11 11 11 11 10 10 10 10 10 10 10 9 9 9 9 9 9 9 9 9 8 8 8 8 7 7 7 7 7 7 6 6 6 6 6 6 6 6 6 6 6 5 5 4 4 3 3 3 2 2 1
13 12 12 13 13 13 12 12 12 11 12 12 11 11 11 11 11 11 11 11 10 10 10 10 10 10 10 10 9 9 9 9 9 9 9 9 9 8 8 8 8 7 7 7 7 7 6 6 6 6 6 6 6 6 6 6 6 6 5 5 4 4 3 3 3 2 2 1 1
12 12 12 12 12 12 12 12 11 11 11 11 11 11 11 11 11 11 10 10 10 10 10 10 10 10 9 9 9 9 9 9 9 9 9 9 8 8 8 8 7 7 7 7 6 6 6 6 6 6 6 6 6 6 6 6 6 5 5 4 4 3 3 2 2 2 1 1 1
12 12 12 12 12 12 12 12 11 11 11 11 11 11 11 11 11 10 10 10 10 10 10 10 10 10 9 9 9 9 9 9 9 9 9 8 8 8 8 7 7 7 7 6 6 6 6 6 6 6 6 6 6 6 6 6 5 5 4 4 3 3 2 2 2 1 1 1 0
12 12 12 12 12 12 12 11 11 11 11 11 11 11 11 11 10 10 10 10 10 10 9 9 9 9 9 9 9 9 9 9 9 9 8 8 8 8 7 7 7 7 6 6 6 6 6 6 6 6 6 6 6 6 5 5 5 4 4 3 3 3 2 2 1 1 1 1 0
12 12 12 12 12 12 12 11 11 11 11 11 11 11 11 11 10 10 10 10 9 9 9 9 9 9 9 9 9 9 9 9 9 8 8 8 8 7 7 7 7 6 6 6 6 6 6 6 6 6 6 6 6 5 5 5 4 4 3 3 3 2 2 2 1 1 1 1 1
13 13 12 12 12 12 12 11 11 11 11 11 11 11 10 10 10 10 10 10 9 9 9 9 9 9 9 9 8 8 9 9 8 8 8 7 7 7 7 7 7 6 6 6 6 6 6 6 6 6 6 6 5 5 5 4 4 3 3 3 2 2 2 2 1 1 1 1 1
13 13 13 12 12 12 12 11 11 11 11 11 11 11 10 10 10 10 10 10 9 9 9 9 9 9 9 8 8 8 8 8 8 8 7 7 7 7 7 7 7 6 6 6 6 6 6 6 6 6 5 5 5 5 4 4 3 3 3 3 2 2 2 1 1 1 1 1 1
12 13 13 12 12 12 12 12 11 11 11 11 11 10 10 10 9 9 9 9 9 9 9 9 9 8 8 8 8 8 8 8 8 7 7 7 7 7 7 7 7 6 6 6 6 6 6 6 6 5 5 5 4 4 4 4 3 3 3 2 2 2 2 1 1 1 1 1 0
12 12 12 12 12 12 12 12 11 11 11 11 10 10 10 9 9 9 9 9 9 9 10 9 9 8 8 8 8 8 8 7 7 7 7 7 7 7 7 7 7 6 6 6 6 6 6 6 5 5 5 4 4 4 3 3 3 3 2 2 2 2 1 1 1 1 1 1 0
11 11 12 12 12 12 12 12 11 11 11 11 10 10 9 9 9 9 9 9 9 9 9 9 8 8 8 8 8 8 7 7 7 7 7 6 6 6 6 7 7 6 6 6 6 6 5 5 5 5 4 4 4 3 3 3 3 3 2 2 2 1 1 1 1 1 1 1 0
11 11 11 12 12 12 12 11 11 11 11 11 10 10 9 9 9 9 9 9 9 9 9 8 8 8 8 8 8 7 7 7 7 6 6 6 6 6 6 6 7 7 6 6 6 5 5 5 5 4 4 4 3 3 3 3 2 2 2 2 2 1 1 1 1 1 0 -0 -1
Height
1461 1462 1464 1465 1466 1468 1469 1471 1472 1473 1474 1476 1477 1479 1481 1482 1484 1486 1487 1488 1489 1490 1491 1491 1492 1493 1494 1495 1496 1497 1498 1499 1500 1501 1502 1503 1505 1506 1506 1507 1508 1509 1510 1511 1511 1512 1513 1513 1514 1515 1516 1517 1518 1519 1519 1520 1521 1521 1521 1522 1522 1522 1522 1522 1522 1522 1523 1523 1523
1460 1461 1463 1464 1466 1467 1469 1470 1471 1472 1474 1475 1477 1479 1480 1482 1484 1485 1486 1487 1488 1489 1490 1491 1492 1492 1493 1494 1495 1496 1497 1499 1500 1501 1502 1503 1504 1505 1506 1506 1507 1508 1509 1510 1511 1511 1512 1513 1513 1514 1515 1516 1517 1518 1518 1519 1520 1520 1521 1521 1521 1521 1521 1521 1521 1522 1522 1522 1522
1459 1461 1462 1464 1465 1466 1468 1469 1470 1472 1473 1475 1476 1478 1480 1482 1483 1485 1486 1487 1488 1489 1490 1491 1491 1492 1493 1494 1495 1496 1497 1498 1499 1500 1501 1502 1504 1504 1505 1506 1507 1508 1509 1509 1510 1511 1511 1512 1512 1513 1514 1515 1516 1517 1518 1518 1519 1519 1520 1520 1520 1521 1521 1521 1521 1521 1521 1521 1521
1458 1460 1461 1463 1464 1466 1467 1468 1470 1471 1473 1474 1476 1478 1480 1481 1483 1484 1486 1487 1488 1489 1490 1490 1491 1492 1493 1493 1494 1496 1497 1498 1499 1500 1501 1502 1503 1504 1504 1505 1506 1508 1508 1509 1509 1510 1510 1511 1511 1512 1513 1514 1515 1516 1517 1517 1518 1519 1519 1519 1520 1520 1520 1520 1520 1521 1521 1521 1521
1457 1459 1461 1462 1463 1465 1466 1468 1469 1471 1472 1474 1476 1478 1480 1481 1483 1484 1485 1486 1487 1488 1489 1490 1491 1492 1492 1493 1494 1495 1496 1497 1498 1500 1501 1502 1502 1503 1504 1505 1506 1507 1508 1508 1508 1509 1510 1510 1511 1512 1513 1514 1515 1515 1516 1516 1517 1518 1518 1519 1519 1519 1519 1519 1520 1520 1520 1520 1520
1457 1459 1460 1462 1463 1465 1466 1468 1469 1471 1472 1474 1476 1477 1479 1481 1482 1483 1485 1486 1487 1488 1489 1490 1491 1491 1492 1493 1494 1495 1496 1497 1498 1499 1500 1501 1502 1503 1504 1505 1505 1506 1507 1507 1508 1508 1509 1510 1511 1511 1512 1513 1514 1515 1515 1516 1516 1517 1518 1518 1518 1518 1518 1519 1519 1519 1519 1520 1520
1456 1458 1460 1461 1463 1465 1466 1467 1469 1471 1472 1474 1476 1477 1479 1480 1482 1483 1484 1486 1487 1488 1488 1489 1490 1491 1492 1493 1493 1494 1495 1496 1497 1498 1499 1500 1501 1502 1503 1504 1505 1506 1506 1507 1507 1508 1509 1509 1510 1511 1512 1512 1513 1514 1515 1515 1516 1516 1517 1517 1517 1518 1518 1518 1519 1519 1519 1519 1519
1456 1458 1460 1461 1462 1464 1465 1467 1468 1470 1472 1473 1475 1477 1478 1480 1481 1483 1484 1486 1486 1487 1488 1489 1490 1491 1491 1492 1493 1494 1495 1496 1497 1498 1499 1500 1501 1502 1502 1503 1504 1505 1506 1506 1507 1507 1508 1509 1510 1510 1511 1512 1513 1513 1514 1515 1516 1516 1516 1517 1517 1517 1518 1518 1518 1519 1519 1519 1519
1456 1458 1459 1461 1462 1464 1465 1466 1468 1470 1471 1473 1475 1476 1478 1480 1481 1483 1484 1485 1486 1487 1488 1488 1489 1490 1491 1492 1493 1494 1494 1495 1496 1497 1498 1499 1500 1501 1502 1503 1504 1505 1505 1506 1506 1507 1507 1508 1509 1510 1511 1511 1512 1513 1514 1515 1515 1516 1516 1516 1517 1517 1517 1518 1518 1518 1518 1518 1519
1456 1457 1459 1461 1462 1463 1465 1466 1468 1470 1471 1473 1475 1476 1478 1480 1481 1482 1484 1485 1486 1486 1487 1488 1489 1490 1491 1491 1492 1493 1494 1495 1495 1496 1497 1499 1499 1500 1501 1502 1503 1504 1505 1505 1506 1506 1507 1508 1509 1510 1511 1511 1512 1513 1514 1515 1515 1515 1516 1516 1516 1517 1517 1517 1518 1518 1518 1518 1518
1455 1457 1458 1460 1461 1463 1465 1466 1468 1469 1471 1473 1475 1476 1478 1479 1481 1482 1483 1484 1485 1486 1487 1488 1489 1489 1490 1491 1492 1493 1494 1494 1495 1496 1497 1498 1499 1500 1501 1502 1503 1504 1504 1505 1506 1506 1507 1508 1509 1510 1511 1511 1512 1513 1514 1514 1515 1515 1516 1516 1516 1517 1517 1517 1517 1517 1517 1517 1517
1455 1457 1458 1460 1461 1463 1464 1466 1467 1469 1471 1472 1474 1476 1477 1479 1480 1482 1483 1484 1485 1486 1487 1487 1488 1489 1490 1491 1491 1492 1493 1494 1495 1496 1497 1498 1499 1500 1501 1501 1502 1503 1504 1505 1505 1506 1507 1508 1509 1510 1511 1511 1512 1513 1513 1514 1514 1515 1516 1516 1516 1516 1517 1517 1517 1517 1517 1517 1517
1455 1456 1458 1460 1461 1462 1464 1466 1467 1469 1470 1472 1474 1475 1477 1478 1480 1481 1482 1484 1485 1486 1486 1487 1488 1489 1490 1491 1491 1492 1493 1494 1495 1496 1496 1498 1498 1499 1500 1501 1502 1503 1503 1504 1505 1506 1507 1508 1509 1510 1511 1511 1512 1512 1513 1514 1515 1515 1516 1516 1516 1516 1516 1516 1516 1516 1516 1517 1517
1455 1456 1458 1459 1461 1462 1464 1465 1466 1468 1470 1471 1473 1475 1476 1478 1480 1481 1482 1483 1484 1485 1486 1487 1488 1489 1490 1491 1491 1492 1493 1494 1495 1495 1496 1497 1498 1499 1500 1501 1501 1502 1503 1504 1505 1506 1507 1508 1509 1510 1511 1511 1512 1512 1513 1514 1515 1515 1515 1515 1516 1516 1516 1516 1516 1516 1516 1516 1516
1454 1456 1457 1459 1460 1462 1463 1465 1466 1468 1469 1471 1473 1474 1476 1477 1479 1481 1482 1483 1484 1485 1486 1486 1487 1488 1490 1491 1491 1492 1493 1494 1494 1495 1496 1497 1498 1499 1500 1500 1501 1502 1503 1503 1505 1506 1507 1508 1509 1510 1511 1511 1512 1513 1513 1514 1514 1515 1515 1515 1515 1516 1516 1516 1516 1516 1516 1516 1516
1454 1456 1457 1458 1460 1461 1463 1464 1466 1467 1469 1471 1472 1474 1476 1477 1479 1480 1481 1482 1483 1484 1485 1486 1487 1488 1489 1490 1491 1492 1492 1493 1494 1495 1496 1497 1497 1498 1499 1500 1501 1501 1502 1504 1505 1506 1507 1508 1509 1510 1511 1511 1512 1513 1513 1514 1514 1515 1515 1515 1515 1515 1516 1516 1516 1515 1515 1515 1515
1453 1455 1456 1458 1460 1461 1462 1464 1465 1467 1468 1470 1471 1473 1475 1476 1478 1480 1481 1482 1483 1484 1485 1486 1487 1488 1489 1490 1491 1491 1492 1493 1494 1495 1496 1496 1497 1498 1499 1500 1501 1502 1503 1504 1505 1506 1507 1508 1509 1510 1511 1511 1512 1512 1513 1514 1514 1514 1515 1515 1515 1515 1515 1515 1515 1515 1515 1515 1515
1453 1455 1456 1458 1459 1461 1462 1463 1465 1466 1468 1470 1471 1473 1475 1476 1478 1479 1481 1482 1483 1484 1485 1486 1487 1488 1489 1489 1490 1491 1492 1493 1494 1495 1495 1496 1497 1498 1499 1500 1501 1502 1503 1504 1505 1506 1507 1508 1509 1510 1511 1511 1512 1512 1513 1513 1514 1514 1514 1514 1514 1515 1515 1515 1515 1515 1515 1515 1514
1453 1455 1456 1457 1459 1460 1461 1463 1465 1466 1468 1469 1471 1472 1474 1476 1477 1479 1480 1481 1482 1483 1484 1485 1486 1487 1488 1489 1490 1491 1492 1493 1493 1494 1495 1496 1497 1498 1499 1500 1501 1502 1503 1505 1506 1506 1507 1508 1509 1510 1511 1511 1511 1512 1512 1513 1513 1513 1514 1514 1514 1514 1514 1514 1514 1514 1514 1514 1514
1453 1455 1456 1457 1458 1460 1461 1462 1464 1466 1467 1469 1471 1472 1474 1476 1477 1479 1480 1481 1482 1483 1484 1485 1486 1487 1488 1489 1490 1490 1491 1492 1493 1494 1495 1496 1497 1498 1499 1500 1501 1503 1504 1505 1506 1507 1508 1508 1509 1510 1510 1511 1511 1511 1512 1512 1513 1513 1513 1514 1514 1514 1514 1514 1514 1514 1514 1514 1514
1451 1453 1455 1457 1458 1460 1461 1462 1464 1466 1467 1469 1470 1472 1474 1476 1477 1478 1480 1481 1482 1483 1484 1485 1486 1487 1487 1488 1489 1490 1491 1492 1493 1494 1495 1496 1497 1498 1499 1501 1502 1503 1504 1505 1506 1507 1508 1508 1509 1509 1510 1510 1511 1511 1512 1512 1513 1513 1513 1513 1513 1514 1514 1514 1514 1514 1514 1514 1514
1450 1452 1454 1456 1457 1459 1461 1462 1464 1466 1467 1468 1470 1472 1474 1475 1477 1478 1479 1480 1481 1482 1484 1485 1486 1486 1487 1488 1488 1489 1490 1491 1493 1494 1495 1496 1497 1498 1500 1501 1502 1503 1504 1505 1506 1507 1507 1508 1508 1509 1509 1510 1511 1511 1512 1512 1513 1513 1513 1513 1513 1513 1513 1514 1514 1514 1514 1514 1514
1449 1451 1453 1455 1456 1458 1460 1462 1463 1465 1466 1468 1470 1472 1473 1475 1476 1478 1479 1480 1481 1482 1483 1484 1486 1486 1487 1487 1488 1489 1490 1491 1492 1494 1495 1496 1497 1499 1500 1501 1502 1503 1504 1505 1506 1506 1507 1507 1508 1509 1509 1510 1511 1511 1512 1512 1512 1513 1513 1513 1513 1513 1513 1513 1514 1514 1514 1514 1514
1447 1449 1451 1453 1455 1457 1459 1461 1463 1464 1466 1467 1470 1471 1473 1475 1476 1477 1479 1480 1481 1482 1483 1484 1485 1486 1486 1487 1488 1489 1490 1491 1492 1494 1495 1496 1498 1499 1500 1501 1503 1504 1504 1505 1506 1506 1507 1507 1508 1509 1510 1510 1511 1511 1512 1512 1512 1512 1512 1513 1513 1513 1513 1513 1513 1513 1513 1513 1513
1446 1448 1450 1452 1454 1456 1459 1460 1462 1463 1465 1467 1469 1471 1473 1474 1476 1477 1478 1479 1481 1481 1483 1484 1485 1486 1486 1487 1488 1489 1491 1492 1493 1494 1495 1497 1498 1499 1501 1502 1503 1504 1504 1505 1506 1507 1507 1508 1509 1509 1510 1511 1511 1511 1512 1512 1512 1512 1512 1512 1513 1513 1513 1513 1513 1513 1513 1513 1513
1445 1447 1449 1451 1454 1456 1458 1460 1461 1463 1464 1466 1468 1470 1472 1474 1475 1476 1478 1479 1480 1481 1483 1484 1485 1486 1486 1487 1488 1490 1491 1492 1493 1495 1496 1497 1498 1500 1501 1502 1503 1504 1504 1505 1506 1507 1508 1508 1509 1510 1510 1511 1511 1511 1511 1511 1512 1512 1512 1512 1513 1513 1513 1513 1513 1513 1513 1513 1513
1444 1446 1448 1451 1453 1456 1457 1459 1461 1462 1464 1465 1467 1470 1472 1473 1475 1476 1477 1478 1480 1481 1482 1484 1485 1486 1486 1487 1488 1490 1491 1492 1493 1495 1496 1497 1498 1500 1501 1502 1503 1504 1505 1506 1506 1507 1508 1508 1509 1510 1510 1511 1511 1511 1511 1511 1511 1512 1512 1512 1512 1512 1513 1513 1513 1513 1513 1513 1513
1443 1445 1447 1450 1453 1455 1457 1459 1461 1462 1463 1465 1467 1469 1471 1473 1474 1476 1476 1478 1479 1481 1482 1483 1485 1486 1486 1487 1488 1490 1491 1492 1493 1495 1496 1497 1499 1500 1501 1502 1503 1504 1505 1506 1507 1507 1508 1509 1509 1510 1510 1510 1510 1511 1511 1511 1511 1512 1512 1512 1512 1512 1512 1512 1513 1513 1513 1513 1513
1442 1445 1447 1449 1452 1454 1456 1458 1460 1461 1463 1464 1466 1469 1471 1472 1474 1475 1476 1478 1479 1481 1482 1483 1484 1485 1486 1487 1488 1490 1491 1492 1493 1495 1496 1497 1499 1500 1501 1502 1503 1504 1505 1506 1507 1508 1508 1509 1509 1510 1510 1510 1510 1511 1511 1511 1511 1512 1512 1512 1512 1512 1512 1512 1513 1513 1513 1513 1513
1441 1444 1446 1448 1451 1453 1456 1458 1460 1461 1462 1464 1466 1468 1470 1472 1473 1475 1476 1477 1479 1480 1481 1483 1484 1485 1486 1487 1488 1489 1491 1492 1493 1495 1496 1497 1499 1500 1501 1502 1503 1504 1505 1506 1507 1508 1508 1509 1509 1509 1510 1510 1510 1511 1511 1511 1511 1511 1511 1511 1512 1512 1512 1512 1513 1513 1513 1513 1514
1441 1443 1445 1447 1449 1452 1455 1457 1459 1461 1462 1463 1466 1468 1470 1471 1472 1474 1476 1477 1478 1480 1481 1482 1484 1485 1486 1487 1489 1490 1491 1491 1493 1495 1496 1498 1499 1500 1501 1503 1504 1505 1506 1506 1507 1508 1508 1508 1509 1509 1510 1510 1510 1511 1511 1511 1511 1511 1511 1511 1511 1512 1512 1512 1513 1513 1513 1513 1514
1440 1443 1445 1446 1449 1451 1454 1456 1458 1460 1461 1463 1465 1467 1469 1471 1472 1474 1475 1476 1478 1480 1481 1482 1483 1485 1486 1488 1489 1490 1491 1492 1493 1495 1496 1498 1499 1501 1501 1503 1504 1505 1506 1506 1507 1507 1508 1508 1509 1509 1510 1510 1510 1510 1511 1511 1511 1511 1511 1511 1511 1512 1512 1512 1513 1513 1513 1514 1514
1440 1442 1444 1446 1448 1451 1453 1456 1458 1460 1461 1463 1465 1467 1469 1470 1472 1473 1475 1476 1478 1480 1481 1482 1483 1485 1486 1488 1489 1490 1491 1492 1494 1495 1497 1498 1499 1501 1501 1503 1504 1505 1505 1506 1506 1507 1508 1508 1509 1509 1510 1510 1510 1510 1510 1511 1511 1511 1511 1511 1512 1512 1512 1513 1513 1513 1514 1514 1514
1440 1441 1444 1446 1448 1450 1453 1456 1458 1460 1461 1463 1465 1466 1468 1470 1471 1473 1474 1476 1478 1479 1481 1482 1483 1485 1486 1488 1488 1489 1491 1493 1494 1496 1497 1498 1499 1501 1501 1502 1504 1504 1505 1506 1506 1507 1507 1508 1509 1509 1510 1510 1510 1510 1510 1510 1511 1511 1511 1511 1512 1512 1513 1513 1513 1514 1514 1514 1514
1439 1441 1444 1446 1448 1450 1453 1456 1458 1460 1461 1463 1465 1466 1468 1470 1471 1472 1474 1476 1477 1479 1480 1482 1484 1485 1486 1487 1488 1489 1491 1493 1494 1496 1497 1498 1499 1500 1501 1502 1503 1504 1505 1505 1506 1507 1507 1508 1509 1509 1509 1510 1510 1510 1510 1511 1511 1511 1511 1512 1512 1512 1513 1513 1514 1514 1514 1515 1515
1439 1441 1443 1446 1448 1450 1453 1456 1458 1460 1461 1463 1464 1466 1467 1469 1471 1472 1474 1476 1477 1478 1480 1481 1483 1485 1486 1487 1488 1490 1491 1493 1494 1496 1497 1498 1499 1500 1501 1502 1503 1504 1504 1505 1506 1507 1507 1508 1509 1509 1509 1510 1510 1510 1510 1511 1511 1511 1512 1512 1512 1513 1513 1514 1514 1514 1514 1515 1515
1439 1441 1443 1445 1446 1449 1452 1455 1458 1460 1461 1463 1464 1466 1467 1469 1471 1472 1474 1475 1476 1478 1480 1481 1483 1485 1486 1487 1489 1491 1492 1493 1495 1496 1497 1498 1499 1500 1501 1501 1502 1503 1504 1505 1506 1507 1507 1508 1509 1509 1510 1510 1510 1510 1511 1511 1511 1511 1512 1512 1513 1513 1513 1514 1514 1514 1514 1515 1515
1438 1440 1441 1443 1445 1447 1451 1454 1457 1459 1461 1462 1464 1466 1467 1469 1471 1472 1474 1475 1476 1477 1479 1481 1483 1485 1486 1488 1490 1491 1492 1494 1495 1496 1497 1498 1499 1500 1501 1501 1502 1503 1504 1505 1506 1507 1507 1508 1509 1509 1510 1510 1510 1510 1511 1511 1511 1512 1512 1512 1513 1513 1513 1514 1514 1514 1514 1514 1515
1436 1439 1441 1442 1444 1446 1449 1452 1456 1458 1460 1462 1464 1465 1467 1469 1471 1472 1474 1475 1476 1477 1479 1481 1483 1485 1487 1489 1490 1491 1492 1494 1495 1496 1497 1498 1499 1500 1501 1501 1502 1503 1504 1505 1506 1507 1508 1508 1509 1509 1510 1510 1510 1511 1511 1511 1511 1512 1512 1512 1513 1513 1513 1514 1514 1514 1514 1514 1515
1436 1438 1441 1443 1444 1446 1449 1452 1455 1457 1459 1461 1463 1465 1467 1469 1471 1472 1473 1475 1476 1478 1479 1481 1483 1485 1487 1489 1491 1491 1492 1494 1495 1496 1497 1498 1499 1500 1501 1501 1502 1503 1504 1505 1506 1507 1508 1508 1509 1509 1510 1510 1510 1511 1511 1511 1511 1512 1512 1513 1513 1513 1513 1514 1514 1514 1514 1514 1515
1436 1439 1442 1444 1445 1447 1449 1452 1454 1457 1459 1461 1463 1465 1467 1469 1470 1471 1473 1474 1476 1478 1480 1481 1483 1486 1488 1489 1491 1491 1492 1493 1495 1496 1497 1498 1499 1500 1501 1501 1502 1503 1504 1505 1506 1507 1508 1508 1509 1510 1510 1510 1510 1511 1511 1511 1512 1512 1512 1513 1513 1513 1513 1513 1514 1514 1514 1514 1514
Wind_Speed
32 32 31 31 30 29 28 28 28 27 26 25 24 22 21 19 17 15 14 12 10 8 8 7 8 9 10 10 11 11 12 12 12 13 14 16 16 16 15 14 12 11 11 12 13 13 14 14 14 13 12 12 12 12 13 13 14 15 15 16 17 18 18 17 17 17 18 18 18
33 32 32 31 30 29 29 28 28 27 27 26 24 22 21 18 17 15 13 12 10 8 7 7 7 8 9 10 10 11 11 11 11 11 12 13 13 13 13 13 13 12 11 10 11 12 14 15 15 14 13 13 13 13 13 14 15 15 16 16 17 18 18 17 16 16 17 18 18
33 33 32 31 31 30 29 29 28 28 27 26 24 22 20 18 16 15 13 11 9 8 7 6 6 7 8 9 10 10 10 10 10 10 10 9 9 10 12 13 14 13 11 10 11 12 14 15 16 15 14 13 13 13 13 14 15 16 16 17 18 19 19 18 16 16 17 17 17
33 33 32 31 31 30 30 29 29 28 27 26 24 22 20 18 16 15 13 10 9 7 6 5 5 6 7 8 9 9 9 9 9 10 9 8 7 7 9 11 12 12 11 10 11 12 14 16 17 16 15 14 13 13 14 15 16 16 16 17 18 19 19 18 17 16 16 16 17
33 32 32 31 31 30 30 29 28 27 26 25 24 22 20 18 16 14 12 10 8 6 5 5 5 5 6 7 8 8 8 8 8 8 8 7 7 7 8 10 11 12 12 11 11 12 13 15 17 17 15 14 13 13 14 16 16 16 16 17 18 19 19 17 15 14 14 15 16
32 32 31 31 30 29 29 28 28 27 26 25 23 22 20 18 16 14 12 10 7 5 5 4 5 5 6 7 7 8 7 7 7 7 7 7 7 8 9 10 12 13 12 11 11 11 12 13 14 15 14 13 13 14 15 16 16 15 16 18 19 19 16 12 11 12 13 14 13
32 31 30 30 29 28 28 27 27 26 25 24 23 21 19 18 16 14 11 9 7 5 4 5 5 5 5 6 7 7 6 6 7 7 7 8 8 9 10 11 11 12 11 11 11 11 11 11 12 13 13 14 14 15 16 16 15 15 17 18 17 14 10 9 10 11 12 10 7
30 30 29 29 28 27 27 27 26 25 24 23 22 20 19 17 15 13 10 8 6 5 4 5 5 5 5 6 6 6 6 7 8 8 8 8 9 10 10 10 10 10 11 11 12 12 11 11 12 12 13 14 15 15 15 15 15 17 17 15 11 8 7 8 10 10 8 4 3
29 29 28 28 27 27 26 26 25 25 24 22 21 19 18 16 14 12 10 8 6 5 5 5 5 6 6 6 6 7 7 8 9 9 9 10 11 11 10 9 9 10 11 11 11 11 12 12 12 13 13 14 14 14 14 15 16 15 13 9 7 7 8 9 8 6 3 2 4
29 29 28 27 27 26 25 25 24 24 23 21 20 18 17 15 13 11 9 7 6 5 6 6 6 6 6 7 7 8 9 10 10 10 10 10 11 11 10 9 11 12 12 11 11 11 11 11 12 12 12 12 12 12 13 13 12 10 8 7 7 7 7 6 3 1 2 3 6
29 28 28 27 26 26 25 24 24 23 22 20 19 18 16 14 12 10 8 6 6 6 6 7 7 7 7 8 8 9 9 10 10 10 10 10 11 10 10 11 13 14 13 12 11 11 11 11 11 10 10 10 11 11 10 9 8 6 5 5 5 5 3 1 0 1 3 5 7
29 28 27 27 26 26 25 24 23 23 21 20 19 17 15 13 11 9 8 6 6 6 7 7 8 8 8 8 9 9 10 10 10 11 11 10 11 11 12 14 15 16 15 14 13 12 11 11 10 10 10 11 10 8 7 6 5 4 3 3 3 2 1 1 2 3 5 7 9
28 27 27 26 26 25 25 24 23 22 21 20 18 17 15 13 11 9 7 7 7 7 8 8 8 8 9 9 9 9 10 10 11 11 11 11 12 13 15 16 16 16 16 15 15 14 13 11 10 11 11 10 7 6 5 4 4 4 3 3 2 1 0 2 3 5 7 8 9
28 27 27 26 26 25 25 24 23 22 21 19 18 16 14 12 10 9 8 7 8 8 9 9 9 9 9 9 8 9 10 11 12 12 12 12 13 14 15 15 15 15 15 17 17 16 14 12 11 10 9 7 5 5 6 5 5 4 3 1 0 1 2 3 5 6 7 8 9
27 27 27 26 26 25 25 24 23 22 21 19 18 16 14 12 10 9 8 9 9 10 10 10 10 10 10 9 8 9 11 12 13 13 13 12 13 13 12 12 12 13 14 15 15 14 12 10 9 8 6 5 6 7 6 5 4 2 1 1 1 2 3 4 4 5 7 8 9
27 27 27 26 26 25 24 24 23 22 21 19 18 16 14 12 11 10 9 10 11 11 11 11 11 11 10 9 9 10 12 13 14 14 14 13 12 11 11 10 10 10 11 12 12 11 10 9 7 6 5 6 6 6 5 3 2 1 1 1 1 2 3 4 5 6 7 9 9
27 27 27 26 25 25 24 24 23 22 21 19 18 16 14 13 11 10 10 11 11 12 12 12 12 11 10 10 10 11 13 14 15 15 14 13 12 11 10 8 8 8 9 10 10 9 9 8 7 7 7 6 5 4 3 2 2 1 1 1 2 3 3 5 6 7 8 8 7
26 26 26 25 25 25 25 24 23 22 20 19 18 16 14 12 11 10 10 11 12 12 13 13 12 11 10 10 11 12 14 15 16 16 15 13 12 11 9 8 9 9 9 9 8 8 9 9 9 8 6 5 3 3 2 2 1 1 1 2 3 4 5 7 7 7 7 6 6
25 25 25 25 25 25 25 24 23 21 20 19 17 16 14 12 11 10 11 12 12 13 13 13 12 10 10 11 12 13 15 16 16 16 14 13 12 10 9 10 10 9 9 9 9 9 9 9 8 6 5 3 3 2 1 1 1 1 2 2 4 5 7 7 7 6 5 5 5
28 27 26 25 24 24 24 23 22 21 19 18 17 15 13 12 11 11 12 13 13 13 13 13 11 10 10 11 13 14 15 16 15 14 13 13 12 11 10 10 10 10 10 10 10 10 9 8 6 5 3 2 1 1 2 2 1 1 2 4 5 7 7 6 5 5 4 4 5
30 29 28 26 25 24 23 22 21 20 19 18 17 15 13 12 11 11 12 13 14 14 14 13 11 10 11 13 14 15 16 15 13 12 12 12 12 11 11 10 11 12 12 11 10 8 7 6 4 3 3 2 2 2 2 1 1 2 4 5 6 6 6 4 4 3 4 4 5
31 29 28 27 26 24 23 22 21 20 19 18 16 14 13 12 12 12 13 14 15 16 15 13 11 10 11 13 15 16 16 15 13 12 13 13 13 12 11 11 12 13 12 10 8 7 5 4 3 3 3 3 3 2 1 1 3 4 6 6 6 4 3 2 2 3 3 4 5
31 30 29 28 27 25 24 22 21 20 19 17 16 14 13 12 12 13 14 15 16 17 16 14 12 11 12 13 15 17 17 16 14 14 14 13 12 12 12 13 13 12 10 8 7 5 4 3 3 3 3 3 2 1 2 3 5 5 5 5 3 2 1 1 2 3 3 4 4
31 31 30 29 27 26 24 22 22 21 19 17 15 14 13 13 14 15 16 17 17 17 16 14 12 12 13 14 16 17 17 16 15 15 14 13 12 12 13 14 12 10 9 7 6 4 3 2 3 4 4 3 2 2 4 4 5 4 4 3 1 0 0 1 2 3 3 4 5
31 31 30 29 27 25 23 22 22 21 19 17 15 14 13 14 15 16 17 18 17 16 15 13 13 13 14 15 16 17 17 16 16 15 13 12 12 12 13 13 12 10 9 7 6 4 4 4 4 4 4 3 3 4 4 4 4 3 2 1 1 0 1 2 2 3 4 5 6
32 31 30 28 26 24 23 22 22 20 19 17 15 15 14 15 16 18 19 19 17 15 14 14 14 14 15 16 17 18 17 17 15 14 13 12 13 13 13 13 12 11 10 8 6 5 5 5 5 4 3 3 4 4 4 3 3 2 2 1 1 1 2 2 3 4 5 6 7
32 31 29 27 25 24 22 22 21 20 19 17 16 15 15 16 17 19 19 18 16 14 14 15 15 16 17 18 18 18 18 18 16 14 13 13 13 13 13 14 14 12 10 8 7 6 6 6 5 4 3 4 4 4 3 3 3 2 2 1 1 2 2 3 4 5 6 6 7
32 31 29 27 25 23 22 22 22 21 19 17 16 16 16 17 18 19 19 17 15 15 16 18 17 18 18 19 19 19 19 19 17 16 15 14 14 14 15 15 14 11 9 7 7 7 6 5 4 3 3 4 3 3 3 3 3 2 2 2 2 3 3 4 5 5 6 6 7
33 31 30 27 25 23 23 23 22 21 19 18 17 17 18 18 19 19 18 16 16 17 19 19 19 19 20 20 20 20 20 19 19 18 17 15 15 16 16 15 12 10 8 7 7 7 6 5 4 3 3 3 3 4 4 3 3 2 2 2 3 4 4 5 6 6 6 7 7
33 32 30 28 26 25 24 24 23 21 20 19 18 19 19 19 19 18 17 17 18 20 21 20 21 21 20 20 20 19 19 19 20 19 18 16 17 17 15 13 11 9 9 9 9 8 6 5 4 4 4 4 4 4 4 3 3 2 3 3 4 5 5 6 6 6 7 7 7
34 32 31 29 28 27 26 25 23 22 21 20 20 20 20 20 19 18 17 18 20 21 21 21 21 21 21 20 19 19 19 19 19 19 18 18 17 16 14 12 11 10 11 10 9 8 6 5 4 5 5 5 5 4 3 3 3 3 3 4 5 5 6 6 6 7 7 7 7
34 33 32 30 29 28 27 25 24 23 22 22 21 21 20 19 19 18 19 20 22 22 21 22 21 21 20 20 19 19 19 18 19 19 19 18 17 15 13 12 12 12 12 11 9 7 6 5 5 6 5 5 5 4 3 3 3 4 4 5 5 6 6 6 7 7 7 7 7
35 33 32 31 30 29 27 26 24 24 23 23 22 21 20 19 19 20 21 23 22 22 21 21 21 20 20 20 20 20 19 19 20 20 19 18 15 14 13 13 13 13 12 11 9 7 6 6 6 6 6 5 4 4 4 4 4 4 5 5 6 6 7 7 7 7 7 7 7
34 33 32 31 29 28 27 26 25 25 24 24 22 21 20 19 20 22 24 24 23 21 21 20 19 18 18 19 21 21 21 21 21 21 19 17 14 13 13 13 14 13 11 10 8 8 7 7 7 6 6 5 4 4 4 4 5 5 5 6 6 7 7 7 7 7 7 7 6
32 32 31 30 28 27 26 25 25 26 25 24 22 21 20 20 21 23 25 25 22 21 20 18 17 16 17 18 21 23 23 23 22 21 18 16 14 13 13 13 13 12 11 10 9 8 8 7 7 6 5 5 4 4 5 5 5 6 6 6 6 7 7 7 7 7 7 6 6
32 31 30 29 28 25 24 24 25 26 25 24 22 22 22 22 23 25 26 24 21 20 18 16 15 15 16 19 23 25 25 24 22 20 17 15 14 13 13 12 12 11 11 10 10 9 8 8 7 6 5 5 4 5 5 5 6 6 6 6 7 7 7 6 6 6 6 6 6
32 32 31 30 27 24 23 24 25 26 25 24 23 22 23 24 26 26 25 22 20 18 16 14 14 15 18 21 25 26 25 23 20 18 16 15 13 12 11 10 11 11 11 11 10 10 9 8 7 6 5 5 5 5 5 6 6 6 6 6 7 7 7 6 6 6 6 6 6
35 34 33 31 28 25 24 25 26 26 25 24 23 23 24 25 26 26 24 20 18 16 14 13 14 17 20 23 25 25 23 21 18 17 16 15 13 11 9 9 11 12 12 12 11 10 9 8 7 6 6 6 6 6 6 6 6 6 6 7 7 7 7 7 7 6 6 6 6
37 36 34 33 30 28 27 28 27 27 25 25 25 25 25 26 26 25 23 19 16 14 13 14 17 20 24 25 25 23 21 19 17 16 15 15 12 10 8 8 10 12 13 12 11 10 9 8 8 7 6 6 6 6 6 6 6 7 7 7 7 7 7 7 7 7 7 8 7
38 36 34 32 30 29 28 28 28 27 25 25 26 26 27 27 26 24 21 17 14 13 13 16 20 24 26 25 23 21 20 19 18 16 15 14 13 11 9 9 10 12 13 13 12 11 9 9 8 7 7 7 7 7 7 6 6 7 7 7 7 7 7 7 7 8 9 9 9
36 34 32 30 29 28 28 28 28 26 25 25 26 27 28 27 25 22 19 17 16 15 16 19 23 26 26 24 21 20 20 19 19 17 15 14 13 12 11 10 11 12 13 13 12 11 10 9 8 8 8 8 7 7 7 7 6 7 7 7 7 7 8 8 9 10 11 12 12
Wind_Direction
223 225 227 228 229 230 231 233 236 238 240 242 244 246 249 250 252 256 261 266 270 274 276 274 268 261 257 255 252 250 248 247 246 245 244 244 245 246 248 248 245 241 237 235 233 233 233 228 224 223 225 229 230 232 236 242 247 251 255 260 264 265 264 262 260 260 262 265 268
222 225 227 228 230 230 231 233 235 238 241 244 246 248 251 253 255 259 264 269 273 276 277 274 267 260 256 255 254 253 254 256 255 252 249 247 244 242 241 242 244 245 243 238 231 230 229 225 221 221 224 227 228 231 236 242 248 253 256 260 265 269 270 268 267 267 268 270 273
222 224 226 227 228 229 230 231 234 237 240 243 246 248 251 253 255 259 265 270 274 275 274 272 266 260 256 254 252 253 256 260 257 256 256 252 242 235 235 240 244 245 243 236 230 228 227 223 221 222 223 225 227 231 238 245 250 254 257 260 264 269 271 271 271 272 273 276 280
221 222 224 225 227 228 230 232 234 237 240 243 245 248 250 253 255 259 264 269 271 272 271 269 263 258 253 250 250 251 255 258 254 255 256 253 241 232 233 237 237 235 232 229 228 228 227 222 220 220 221 222 226 232 240 247 252 255 257 259 264 269 271 270 271 274 278 283 286
219 221 223 225 227 229 231 233 235 238 241 244 246 249 251 253 256 260 264 267 271 271 266 260 255 250 247 246 245 247 249 251 249 250 250 247 241 232 226 223 223 223 224 224 226 228 228 224 220 217 216 219 226 235 243 248 252 254 257 261 266 269 269 269 272 279 286 288 287
217 219 221 224 226 228 230 233 236 238 242 245 247 249 252 255 258 261 264 268 270 267 256 245 241 240 238 238 237 239 242 242 240 237 238 239 237 225 216 216 222 222 219 218 219 224 228 226 220 215 215 221 230 238 244 247 250 254 259 264 267 268 268 271 280 288 288 285 284
216 217 219 222 224 226 228 232 235 238 242 245 248 250 253 256 259 262 265 268 265 257 242 230 227 227 228 228 227 227 227 227 224 221 222 228 226 215 211 217 222 220 214 211 211 216 222 224 220 217 218 225 232 238 243 247 250 256 262 265 267 268 273 285 290 287 282 281 290
215 216 218 220 222 224 227 231 234 237 241 245 248 250 254 257 259 262 264 263 258 247 231 219 216 217 219 218 213 208 206 207 206 206 209 216 212 206 205 215 215 211 207 205 205 208 212 216 216 217 220 225 231 237 242 248 254 259 263 265 268 274 284 288 281 275 273 285 327
213 215 217 219 221 223 227 231 235 238 241 245 248 251 254 256 258 260 260 258 251 238 221 212 209 211 211 208 198 193 195 198 196 196 200 205 202 199 199 207 204 202 201 199 199 200 203 206 208 212 217 224 231 238 245 252 257 260 263 268 274 278 276 269 264 262 275 335 346
211 213 215 217 220 223 226 230 235 239 242 245 248 250 252 254 256 256 256 252 242 228 216 209 207 207 204 195 186 189 195 198 193 190 192 198 196 196 199 201 200 202 203 200 196 194 195 197 201 208 216 225 234 243 250 255 258 260 264 270 271 266 259 252 247 269 346 345 342
211 212 214 216 218 221 225 229 233 237 241 244 246 248 250 251 251 250 248 242 230 219 212 207 206 204 197 186 184 192 199 197 189 184 186 193 194 197 199 199 200 206 211 209 202 195 193 195 201 210 222 233 242 248 251 252 253 255 258 258 251 243 236 230 336 357 346 341 340
210 212 213 215 218 221 224 228 232 235 239 241 243 245 246 247 246 244 239 230 219 212 207 206 204 199 190 184 189 197 199 192 184 180 183 189 193 194 195 195 199 207 215 217 211 204 200 202 209 220 231 240 243 244 241 237 233 229 223 215 199 184 154 54 5 346 340 339 338
210 211 213 215 218 220 223 227 231 234 237 239 240 242 242 242 241 238 231 220 210 206 203 202 198 191 186 188 195 198 193 184 177 177 181 188 190 191 191 194 200 208 217 223 221 215 210 211 220 233 240 241 235 224 209 197 186 176 167 161 152 140 41 358 350 345 341 337 330
209 211 213 215 218 220 223 226 229 232 234 236 237 238 238 237 234 229 221 211 205 202 199 195 188 184 184 190 195 192 184 177 174 176 181 186 187 189 192 199 207 217 225 229 228 223 219 220 229 238 242 236 212 186 173 167 160 155 151 149 140 331 336 347 350 346 338 328 318
209 211 214 216 218 219 222 225 227 230 231 233 234 235 234 232 228 221 213 206 202 198 194 189 182 180 183 189 190 185 179 175 174 175 179 182 185 191 201 214 225 232 233 231 226 221 218 221 227 231 226 201 172 160 157 156 157 160 179 260 309 335 349 357 349 335 322 312 308
209 212 214 215 217 219 221 223 226 227 229 230 231 231 230 227 222 214 208 204 200 196 190 184 179 179 183 187 187 183 179 176 174 174 175 178 186 199 214 228 234 232 225 218 212 208 207 210 209 198 176 158 152 152 157 165 184 222 259 288 343 8 6 349 330 315 305 301 302
208 211 213 213 215 218 220 222 224 225 226 227 228 228 226 222 217 210 205 203 200 194 187 181 179 182 186 188 187 184 181 178 175 174 176 182 195 210 218 219 211 202 198 198 197 196 192 185 174 161 152 149 154 166 186 207 234 264 307 357 15 7 344 324 312 304 300 298 303
210 210 210 211 214 217 220 221 222 223 224 225 225 225 222 218 212 206 203 202 199 193 185 179 180 185 191 191 188 185 182 180 178 178 183 195 207 212 206 190 181 180 183 188 187 182 172 163 156 150 150 157 175 196 209 217 238 7 22 18 357 334 318 310 305 301 301 304 313
217 216 213 211 213 215 218 219 220 220 221 222 223 221 219 214 207 203 201 200 196 190 184 179 181 187 193 193 189 186 183 182 182 186 195 205 209 203 189 178 177 178 180 178 171 162 155 151 149 151 158 172 188 195 179 135 94 57 21 351 327 314 307 302 300 302 307 317 327
215 216 216 215 214 214 215 216 216 216 217 219 219 218 214 208 203 201 200 197 192 187 182 181 183 188 192 192 189 186 184 183 186 193 200 202 198 191 185 182 180 177 171 163 155 149 146 147 149 153 159 161 148 115 98 94 80 26 337 319 308 301 297 296 299 307 319 330 338
207 209 210 212 214 215 216 216 215 214 214 214 214 213 209 203 199 199 198 194 189 183 179 179 182 187 191 191 188 185 182 181 188 194 195 191 188 186 186 184 177 169 160 153 147 144 143 145 145 143 134 118 102 92 86 73 355 316 305 299 294 290 290 293 304 319 333 341 346
202 203 204 206 209 212 214 215 215 214 213 211 210 208 203 199 197 197 196 192 186 180 176 176 180 187 191 190 187 183 179 179 184 188 187 185 185 185 184 179 169 161 154 148 143 138 134 131 127 120 113 109 110 108 98 305 298 294 290 286 283 283 286 298 322 338 346 349 352
199 200 201 203 205 207 209 210 211 211 210 208 205 202 198 195 195 195 194 189 183 177 173 174 179 187 190 187 184 180 176 175 179 183 184 185 186 183 178 170 163 156 149 141 131 121 113 112 118 119 119 123 134 173 260 280 283 283 281 277 272 272 289 334 349 352 353 355 356
197 198 199 201 203 204 205 207 208 207 205 202 199 196 193 194 195 195 192 187 180 174 172 174 181 186 187 184 181 178 175 175 177 180 183 186 185 178 169 162 158 153 145 135 124 115 113 120 126 130 135 150 185 235 261 272 274 272 266 255 240 234 10 8 4 1 2 4 4
196 197 198 199 200 202 204 206 206 204 200 196 192 191 192 195 197 196 192 185 177 173 172 178 183 185 184 181 178 176 175 176 177 179 181 182 178 171 165 161 159 155 148 141 136 134 134 132 133 139 154 185 223 248 259 262 258 247 230 210 174 75 29 17 14 13 15 17 17
196 197 197 198 198 200 202 204 204 201 196 190 187 188 192 197 199 197 191 182 174 172 177 184 186 185 181 179 177 177 176 176 176 176 177 177 174 170 166 164 161 159 155 150 147 143 141 141 146 158 185 218 241 250 250 240 222 201 179 153 100 47 33 29 27 28 29 30 32
196 196 197 197 197 198 201 203 202 198 192 187 185 188 193 199 201 197 188 179 174 176 183 188 187 184 180 179 178 178 177 175 174 175 176 176 174 172 169 167 163 159 154 150 147 147 148 152 161 182 213 233 240 237 222 199 177 161 144 115 76 53 44 42 40 39 41 43 44
196 196 195 195 195 197 200 201 198 194 188 185 185 189 195 199 200 194 186 179 179 185 190 189 186 182 181 180 181 181 179 176 175 176 177 175 173 172 171 168 162 156 150 148 150 155 159 165 178 200 220 226 216 197 178 162 150 139 123 94 72 60 55 51 49 49 51 54 54
195 195 193 192 192 196 199 198 195 190 186 183 185 189 194 198 197 192 186 184 189 193 192 187 183 182 182 182 183 184 184 184 182 180 177 175 174 172 169 165 160 155 152 154 159 164 169 176 189 202 205 198 182 167 156 146 136 121 100 81 69 63 61 59 58 58 60 60 60
194 193 192 190 191 193 195 195 192 187 184 182 185 189 193 195 193 190 190 193 197 195 190 185 182 182 182 183 186 189 193 193 187 180 175 176 173 169 164 161 160 159 159 163 167 172 177 182 188 187 179 170 162 153 146 138 124 103 83 72 69 67 67 65 65 65 65 64 64
192 192 190 189 189 191 192 191 189 185 183 183 185 188 191 192 191 192 196 200 198 193 187 183 183 182 182 183 189 195 198 195 185 178 175 175 169 163 159 160 161 163 164 168 172 175 178 179 176 170 163 157 153 147 139 125 106 88 76 72 71 71 69 67 66 66 66 65 65
190 190 189 188 188 188 189 188 186 185 183 184 185 187 189 191 192 196 200 200 194 186 183 184 184 183 182 184 192 197 197 189 180 175 173 169 163 157 156 160 164 166 168 171 172 173 171 168 165 160 157 153 149 141 126 109 94 82 76 75 74 73 71 68 67 66 65 65 64
189 189 188 187 187 186 186 185 185 184 184 184 185 187 190 193 195 198 198 193 185 181 182 184 185 183 184 188 194 195 190 182 176 172 167 161 156 155 157 162 165 167 168 168 167 164 160 158 157 155 153 150 144 132 115 99 87 82 80 81 79 78 76 73 72 70 68 66 64
188 188 188 187 186 184 183 183 184 184 184 184 185 188 192 196 199 198 192 184 178 178 182 183 184 184 187 193 197 192 184 177 172 166 160 156 156 158 161 164 165 165 164 161 157 153 153 154 155 154 152 147 137 122 108 97 90 87 87 86 85 83 82 80 79 76 73 70 66
191 190 189 187 185 182 181 181 183 184 184 184 186 189 195 199 201 195 187 178 176 177 179 180 181 185 191 197 197 189 179 172 166 160 155 155 158 162 164 165 163 160 156 151 149 149 151 153 154 153 150 142 130 116 106 100 97 95 93 91 89 89 87 85 83 81 76 72 66
194 192 190 186 183 180 179 181 183 184 185 186 188 192 197 200 198 192 183 177 176 175 174 175 180 188 194 195 190 181 173 166 159 154 153 157 162 165 166 164 159 153 149 147 147 150 153 155 154 152 145 135 124 113 107 104 102 99 97 94 92 89 88 86 84 80 76 71 65
195 193 190 186 181 179 180 183 185 185 186 188 192 196 199 198 194 188 182 179 176 173 171 174 182 190 192 188 179 171 164 158 154 151 152 158 164 168 167 163 156 150 147 148 151 154 157 156 153 148 139 129 118 111 107 105 104 101 98 95 91 88 85 83 80 76 72 66 61
193 192 189 184 180 179 181 184 185 186 188 190 194 198 198 195 189 185 183 181 177 173 172 177 185 187 184 177 169 162 156 153 151 152 155 159 164 167 168 163 156 151 150 152 155 157 159 156 151 143 134 124 115 108 105 104 103 101 97 92 88 85 82 80 77 74 70 64 62
191 190 188 184 180 179 180 182 183 185 188 192 195 196 194 189 184 182 182 181 177 173 174 179 180 179 174 167 161 155 151 150 152 155 158 159 158 161 164 163 158 155 154 156 158 160 158 155 147 139 131 122 113 106 102 101 100 98 94 89 87 83 81 78 74 70 67 64 64
188 188 186 183 180 177 177 179 181 184 188 192 195 193 188 183 181 179 178 175 173 173 175 175 172 170 166 162 157 153 151 152 154 157 158 155 152 152 157 163 162 159 158 159 160 160 157 151 144 136 128 120 111 104 100 97 96 96 93 90 87 85 80 74 69 65 63 62 61
186 185 184 182 179 176 176 177 180 183 188 193 193 189 184 180 178 176 172 169 170 172 173 170 166 164 162 159 157 155 155 155 156 156 154 151 148 149 154 161 164 162 161 160 160 158 154 148 140 131 123 115 109 103 98 95 95 94 92 90 87 83 77 70 64 61 60 60 58